Location: Unspecified
(0.0000°N, 0.0000°E)
Time: 19:17:16
(UTC+01:00)

Meteor PRIRODA - Visible Passes

Search period start: 25 January 2015 00:00
Search period end: 04 February 2015 00:00
Orbit: 506 x 528 km, 97.3° (Epoch: 24 January)

Date Brightness Start Highest point End Pass type
(mag) Time Alt. Az. Time Alt. Az. Time Alt. Az.
25 Jan 3.5 05:38:57 86° W 05:38:57 86° W 05:42:39 10° SSW visible
26 Jan 4.4 05:24:33 52° E 05:24:35 52° E 05:28:12 10° S visible
27 Jan 5.5 05:10:10 29° E 05:10:13 29° E 05:13:31 10° SSE visible
28 Jan 6.4 04:55:45 18° E 04:55:50 18° E 04:58:27 10° SE visible
28 Jan 5.7 06:30:48 11° W 06:30:48 11° W 06:31:18 10° WSW visible
29 Jan 7.0 04:41:20 10° E 04:41:25 11° E 04:42:20 10° ESE visible
29 Jan 5.2 06:16:23 18° WSW 06:16:23 18° WSW 06:18:11 10° SW visible
30 Jan 4.6 06:01:59 29° WSW 06:01:59 29° WSW 06:04:26 10° SW visible
31 Jan 4.1 05:47:33 45° SW 05:47:33 45° SW 05:50:20 10° SSW visible
01 Feb 4.2 05:33:08 50° S 05:33:08 50° S 05:36:00 10° S visible
02 Feb 5.1 05:18:42 35° SE 05:18:42 35° SE 05:21:27 10° S visible
03 Feb 6.0 05:04:16 22° ESE 05:04:16 22° ESE 05:06:35 10° SSE visible
